Time,TemperatureF,DewpointF,PressureIn,WindDirection,WindDirectionDegrees,WindSpeedMPH,WindSpeedGustMPH,Humidity,HourlyPrecipIn,Conditions,Clouds,dailyrainin,SoftwareType,DateUTC
2013-02-20 15:43:00,51.5,18.6,29.54,ESE,105,7.0,0.0,27,0.00,,,0.00,WeatherTracker,2013-02-20 22:43:00,
2013-02-20 15:44:00,51.4,18.6,29.54,SE,146,7.0,16.0,27,0.00,,,0.00,WeatherTracker,2013-02-20 22:44:00,
2013-02-20 15:45:00,51.4,18.6,29.54,SE,146,7.0,13.0,27,0.00,,,0.00,WeatherTracker,2013-02-20 22:45:00,
2013-02-20 15:50:00,51.2,17.5,29.54,ESE,123,4.0,13.0,26,0.00,,,0.00,WeatherTracker,2013-02-20 22:50:00,
2013-02-20 15:55:00,50.8,17.2,29.54,ESE,120,15.0,15.0,26,0.00,,,0.00,WeatherTracker,2013-02-20 22:55:00,
2013-02-20 16:00:00,50.4,16.8,29.54,South,171,5.0,16.0,26,0.00,,,0.00,WeatherTracker,2013-02-20 23:00:00,
2013-02-20 16:05:00,50.1,16.6,29.55,SE,144,2.0,16.0,26,0.00,,,0.00,WeatherTracker,2013-02-20 23:05:00,
2013-02-20 16:10:00,50.2,16.7,29.55,SSE,157,7.0,9.0,26,0.00,,,0.00,WeatherTracker,2013-02-20 23:10:00,
2013-02-20 16:15:00,50.1,22.1,29.56,SSE,148,11.0,16.0,33,0.00,,,0.00,WeatherTracker,2013-02-20 23:15:00,
2013-02-20 16:20:00,48.6,25.4,29.57,SE,135,13.0,16.0,40,0.00,,,0.00,WeatherTracker,2013-02-20 23:20:00,
2013-02-20 16:25:00,47.6,27.3,29.57,WNW,289,2.0,16.0,45,0.00,,,0.00,WeatherTracker,2013-02-20 23:25:00,
2013-02-20 16:30:00,46.2,28.6,29.58,West,272,6.0,13.0,50,0.00,,,0.00,WeatherTracker,2013-02-20 23:30:00,
2013-02-20 16:35:00,45.1,29.0,29.58,NW,314,3.0,13.0,53,0.00,,,0.00,WeatherTracker,2013-02-20 23:35:00,
2013-02-20 16:40:00,44.5,28.9,29.59,NE,37,1.0,12.0,54,0.00,,,0.00,WeatherTracker,2013-02-20 23:40:00,
2013-02-20 16:45:00,44.2,29.5,29.58,WNW,285,1.0,10.0,56,0.00,,,0.00,WeatherTracker,2013-02-20 23:45:00,
2013-02-20 16:50:00,43.8,29.6,29.59,SW,236,4.0,10.0,57,0.00,,,0.00,WeatherTracker,2013-02-20 23:50:00,
2013-02-20 16:55:00,43.6,29.8,29.59,SE,138,2.0,8.0,58,0.00,,,0.00,WeatherTracker,2013-02-20 23:55:00,
2013-02-20 17:00:00,43.7,29.9,29.59,WNW,297,0.0,8.0,58,0.00,,,0.00,WeatherTracker,2013-02-21 00:00:00,
2013-02-20 17:05:00,43.5,29.7,29.59,West,281,2.0,9.0,58,0.00,,,0.00,WeatherTracker,2013-02-21 00:05:00,
2013-02-20 17:10:00,43.3,29.5,29.60,West,273,0.0,9.0,58,0.00,,,0.00,WeatherTracker,2013-02-21 00:10:00,
2013-02-20 17:15:00,43.4,29.2,29.60,SW,230,0.0,6.0,57,0.00,,,0.00,WeatherTracker,2013-02-21 00:15:00,
2013-02-20 17:21:00,43.5,29.3,29.60,South,169,0.0,5.0,57,0.00,,,0.00,WeatherTracker,2013-02-21 00:21:00,
2013-02-20 17:26:00,43.2,29.0,29.60,West,273,0.0,5.0,57,0.00,,,0.00,WeatherTracker,2013-02-21 00:26:00,
2013-02-20 17:31:00,43.4,27.4,29.60,West,279,1.0,5.0,53,0.00,,,0.00,WeatherTracker,2013-02-21 00:31:00,
2013-02-20 17:36:00,43.4,27.9,29.60,NW,321,0.0,5.0,54,0.00,,,0.00,WeatherTracker,2013-02-21 00:36:00,
2013-02-20 17:41:00,43.3,27.3,29.60,NW,305,0.0,4.0,53,0.00,,,0.00,WeatherTracker,2013-02-21 00:41:00,
2013-02-20 17:46:00,43.2,26.8,29.60,NNW,335,0.0,4.0,52,0.00,,,0.00,WeatherTracker,2013-02-21 00:46:00,
2013-02-20 17:51:00,43.2,26.3,29.60,WNW,296,0.0,3.0,51,0.00,,,0.00,WeatherTracker,2013-02-21 00:51:00,
2013-02-20 17:56:00,43.1,26.7,29.60,WNW,296,0.0,3.0,52,0.00,,,0.00,WeatherTracker,2013-02-21 00:56:00,
2013-02-20 18:01:00,43.2,26.8,29.60,WNW,298,1.0,3.0,52,0.00,,,0.00,WeatherTracker,2013-02-21 01:01:00,
2013-02-20 18:06:00,43.2,27.7,29.60,NW,314,0.0,5.0,54,0.00,,,0.00,WeatherTracker,2013-02-21 01:06:00,
2013-02-20 18:11:00,42.9,27.9,29.61,NW,321,1.0,5.0,55,0.00,,,0.00,WeatherTracker,2013-02-21 01:11:00,
2013-02-20 18:16:00,43.0,28.0,29.61,NW,321,2.0,4.0,55,0.00,,,0.00,WeatherTracker,2013-02-21 01:16:00,
2013-02-20 18:21:00,43.3,27.8,29.62,NNE,19,2.0,4.0,54,0.00,,,0.00,WeatherTracker,2013-02-21 01:21:00,
2013-02-20 18:26:00,43.6,27.6,29.62,North,360,2.0,5.0,53,0.00,,,0.00,WeatherTracker,2013-02-21 01:26:00,
2013-02-20 18:31:00,42.3,29.8,29.62,North,11,5.0,7.0,61,0.00,,,0.00,WeatherTracker,2013-02-21 01:31:00,
2013-02-20 18:36:00,41.3,30.8,29.62,NE,36,4.0,7.0,66,0.00,,,0.00,WeatherTracker,2013-02-21 01:36:00,
2013-02-20 18:41:00,40.7,31.7,29.63,East,86,2.0,8.0,70,0.00,,,0.00,WeatherTracker,2013-02-21 01:41:00,
2013-02-20 18:46:00,40.4,31.4,29.63,North,355,6.0,9.0,70,0.00,,,0.00,WeatherTracker,2013-02-21 01:46:00,
2013-02-20 18:51:00,40.4,31.4,29.64,NNE,33,2.0,9.0,70,0.00,,,0.00,WeatherTracker,2013-02-21 01:51:00,
2013-02-20 18:56:00,40.5,31.5,29.64,North,11,4.0,8.0,70,0.00,,,0.00,WeatherTracker,2013-02-21 01:56:00,
2013-02-20 19:02:00,40.4,31.0,29.64,NNW,346,3.0,5.0,69,0.00,,,0.00,WeatherTracker,2013-02-21 02:02:00,
2013-02-20 19:07:00,40.6,30.9,29.65,NNE,28,1.0,5.0,68,0.00,,,0.00,WeatherTracker,2013-02-21 02:07:00,
2013-02-20 19:12:00,40.9,30.8,29.65,NE,36,0.0,4.0,67,0.00,,,0.00,WeatherTracker,2013-02-21 02:12:00,
2013-02-20 19:17:00,41.0,30.5,29.65,NE,36,0.0,2.0,66,0.00,,,0.00,WeatherTracker,2013-02-21 02:17:00,
2013-02-20 19:22:00,41.0,30.5,29.65,NE,36,1.0,1.0,66,0.00,,,0.00,WeatherTracker,2013-02-21 02:22:00,
2013-02-20 19:27:00,41.3,30.1,29.65,North,355,0.0,1.0,64,0.00,,,0.00,WeatherTracker,2013-02-21 02:27:00,
2013-02-20 19:32:00,41.4,29.4,29.65,WNW,292,0.0,2.0,62,0.00,,,0.00,WeatherTracker,2013-02-21 02:32:00,
2013-02-20 19:37:00,41.4,29.4,29.65,East,96,0.0,2.0,62,0.00,,,0.00,WeatherTracker,2013-02-21 02:37:00,
2013-02-20 19:42:00,41.3,28.9,29.65,SW,235,0.0,4.0,61,0.00,,,0.00,WeatherTracker,2013-02-21 02:42:00,
2013-02-20 19:47:00,41.2,28.8,29.65,West,259,0.0,4.0,61,0.00,,,0.00,WeatherTracker,2013-02-21 02:47:00,
2013-02-20 19:52:00,41.2,28.8,29.65,West,259,0.0,2.0,61,0.00,,,0.00,WeatherTracker,2013-02-21 02:52:00,
2013-02-20 19:57:00,41.2,28.4,29.65,West,259,2.0,2.0,60,0.00,,,0.00,WeatherTracker,2013-02-21 02:57:00,
2013-02-20 20:02:00,41.1,28.7,29.65,WNW,285,2.0,2.0,61,0.00,,,0.00,WeatherTracker,2013-02-21 03:02:00,
2013-02-20 20:07:00,41.0,28.2,29.65,NW,316,0.0,4.0,60,0.00,,,0.00,WeatherTracker,2013-02-21 03:07:00,
2013-02-20 20:12:00,40.9,28.1,29.65,NW,304,0.0,4.0,60,0.00,,,0.00,WeatherTracker,2013-02-21 03:12:00,
2013-02-20 20:17:00,40.8,28.4,29.65,WSW,252,0.0,3.0,61,0.00,,,0.00,WeatherTracker,2013-02-21 03:17:00,
2013-02-20 20:22:00,40.7,28.3,29.65,WSW,252,0.0,3.0,61,0.00,,,0.00,WeatherTracker,2013-02-21 03:22:00,
2013-02-20 20:27:00,40.6,28.6,29.64,West,264,0.0,2.0,62,0.00,,,0.00,WeatherTracker,2013-02-21 03:27:00,
2013-02-20 20:32:00,40.5,28.5,29.64,West,269,2.0,3.0,62,0.00,,,0.00,WeatherTracker,2013-02-21 03:32:00,
2013-02-20 20:37:00,40.4,28.8,29.64,WSW,252,0.0,3.0,63,0.00,,,0.00,WeatherTracker,2013-02-21 03:37:00,
2013-02-20 20:42:00,40.3,29.1,29.64,NNW,329,3.0,3.0,64,0.00,,,0.00,WeatherTracker,2013-02-21 03:42:00,
2013-02-20 20:47:00,40.1,29.3,29.63,NW,313,0.0,4.0,65,0.00,,,0.00,WeatherTracker,2013-02-21 03:47:00,
2013-02-20 20:52:00,40.1,29.3,29.63,West,275,0.0,4.0,65,0.00,,,0.00,WeatherTracker,2013-02-21 03:52:00,
2013-02-20 20:57:00,40.1,28.9,29.62,West,275,1.0,4.0,64,0.00,,,0.00,WeatherTracker,2013-02-21 03:57:00,
2013-02-20 21:02:00,40.2,29.0,29.63,West,275,0.0,4.0,64,0.00,,,0.00,WeatherTracker,2013-02-21 04:02:00,
2013-02-20 21:07:00,40.3,29.1,29.63,West,275,1.0,2.0,64,0.00,,,0.00,WeatherTracker,2013-02-21 04:07:00,
2013-02-20 21:12:00,40.2,28.6,29.62,West,275,0.0,2.0,63,0.00,,,0.00,WeatherTracker,2013-02-21 04:12:00,
2013-02-20 21:17:00,40.2,28.6,29.63,West,275,0.0,2.0,63,0.00,,,0.00,WeatherTracker,2013-02-21 04:17:00,
2013-02-20 21:22:00,40.2,28.2,29.63,West,275,1.0,1.0,62,0.00,,,0.00,WeatherTracker,2013-02-21 04:22:00,
2013-02-20 21:27:00,40.0,29.6,29.63,WNW,291,0.0,1.0,66,0.00,,,0.00,WeatherTracker,2013-02-21 04:27:00,
2013-02-20 21:32:00,39.5,30.2,29.63,NW,311,1.0,2.0,69,0.00,,,0.00,WeatherTracker,2013-02-21 04:32:00,
2013-02-20 21:37:00,39.3,30.3,29.63,North,360,0.0,2.0,70,0.00,,,0.00,WeatherTracker,2013-02-21 04:37:00,
2013-02-20 21:43:00,39.1,30.2,29.63,SSE,147,0.0,2.0,70,0.00,,,0.00,WeatherTracker,2013-02-21 04:43:00,
2013-02-20 21:48:00,38.9,30.3,29.63,WNW,288,0.0,3.0,71,0.00,,,0.00,WeatherTracker,2013-02-21 04:48:00,
2013-02-20 21:53:00,38.8,30.2,29.63,WNW,288,0.0,3.0,71,0.00,,,0.00,WeatherTracker,2013-02-21 04:53:00,
2013-02-20 21:58:00,38.6,30.0,29.63,WNW,288,0.0,1.0,71,0.00,,,0.00,WeatherTracker,2013-02-21 04:58:00,
2013-02-20 22:00:00,38.6,30.0,29.63,WNW,288,0.0,0.0,71,0.00,,,0.00,WeatherTracker,2013-02-21 05:00:00,
2013-02-20 22:05:00,38.6,30.0,29.63,WNW,288,0.0,0.0,71,0.00,,,0.00,WeatherTracker,2013-02-21 05:05:00,
2013-02-20 22:10:00,38.6,30.0,29.62,WNW,286,0.0,1.0,71,0.00,,,0.00,WeatherTracker,2013-02-21 05:10:00,
2013-02-20 22:15:00,38.7,30.1,29.62,WNW,286,0.0,2.0,71,0.00,,,0.00,WeatherTracker,2013-02-21 05:15:00,
2013-02-20 22:21:00,38.7,30.1,29.62,WNW,286,0.0,2.0,71,0.00,,,0.00,WeatherTracker,2013-02-21 05:21:00,
2013-02-20 22:26:00,38.7,30.1,29.61,WNW,285,0.0,1.0,71,0.00,,,0.00,WeatherTracker,2013-02-21 05:26:00,
2013-02-20 22:31:00,38.7,30.1,29.61,WNW,285,0.0,1.0,71,0.00,,,0.00,WeatherTracker,2013-02-21 05:31:00,
2013-02-20 22:36:00,38.8,29.9,29.61,SE,140,1.0,2.0,70,0.00,,,0.00,WeatherTracker,2013-02-21 05:36:00,
2013-02-20 22:41:00,38.8,29.9,29.61,SSE,151,2.0,2.0,70,0.00,,,0.00,WeatherTracker,2013-02-21 05:41:00,
2013-02-20 22:46:00,38.6,29.3,29.60,SSE,154,1.0,3.0,69,0.00,,,0.00,WeatherTracker,2013-02-21 05:46:00,
2013-02-20 22:51:00,38.6,29.7,29.60,SSE,155,1.0,3.0,70,0.00,,,0.00,WeatherTracker,2013-02-21 05:51:00,
2013-02-20 22:56:00,38.6,29.3,29.60,South,169,1.0,2.0,69,0.00,,,0.00,WeatherTracker,2013-02-21 05:56:00,
2013-02-20 23:01:00,38.5,28.9,29.60,South,173,1.0,4.0,68,0.00,,,0.00,WeatherTracker,2013-02-21 06:01:00,
2013-02-20 23:06:00,38.4,28.8,29.60,SSE,154,1.0,4.0,68,0.00,,,0.00,WeatherTracker,2013-02-21 06:06:00,
2013-02-20 23:11:00,38.4,28.4,29.60,SSE,167,1.0,5.0,67,0.00,,,0.00,WeatherTracker,2013-02-21 06:11:00,
2013-02-20 23:16:00,38.0,28.4,29.61,ESE,121,5.0,11.0,68,0.00,,,0.00,WeatherTracker,2013-02-21 06:16:00,
2013-02-20 23:21:00,37.0,28.5,29.61,ESE,122,5.0,11.0,71,0.00,,,0.00,WeatherTracker,2013-02-21 06:21:00,
2013-02-20 23:26:00,36.4,28.6,29.61,SE,136,3.0,9.0,73,0.00,,,0.00,WeatherTracker,2013-02-21 06:26:00,
2013-02-20 23:31:00,36.1,29.0,29.61,SSE,158,2.0,10.0,75,0.00,,,0.00,WeatherTracker,2013-02-21 06:31:00,
2013-02-20 23:36:00,35.9,29.1,29.62,SE,145,3.0,10.0,76,0.00,,,0.00,WeatherTracker,2013-02-21 06:36:00,
2013-02-20 23:41:00,35.9,28.8,29.62,South,189,1.0,7.0,75,0.00,,,0.00,WeatherTracker,2013-02-21 06:41:00,
2013-02-20 23:46:00,35.6,28.5,29.61,WSW,242,3.0,7.0,75,0.00,,,0.00,WeatherTracker,2013-02-21 06:46:00,
2013-02-20 23:51:00,35.2,28.1,29.62,SSE,156,3.0,6.0,75,0.00,,,0.00,WeatherTracker,2013-02-21 06:51:00,
2013-02-20 23:57:00,34.9,27.5,29.62,SE,138,2.0,6.0,74,0.00,,,0.00,WeatherTracker,2013-02-21 06:57:00,